Regional Weather Roundup
Issued by NWS

Home | Current Version | Previous Version | Text Only | Print | Product List | Glossary Off
Versions: 1 2 3 4 5 6 7 8 9 10 11 12 13 14 15 16 17 18 19 20 21 22 23 24 25 26 27 28 29 30 31 32 33 34 35 36 37 38 39 40 41 42 43 44 45 46 47 48 49 50

000
ASUS43 KMPX 011410
RWRMN
WEATHER ROUNDUP FOR MINNESOTA
NATIONAL WEATHER SERVICE TWIN CITIES/CHANHASSEN MN
900 AM CDT TUE SEP 01 2015


NOTE: "FAIR" INDICATES FEW OR NO CLOUDS BELOW 12,000 FEET WITH NO
SIGNIFICANT WEATHER AND/OR OBSTRUCTIONS TO VISIBILITY. N/A MEANS
CURRENT SKY AND/OR WEATHER CONDITIONS ARE NOT AVAILABLE.

MNZ060>063-068>070-011500-
   Twin Cities Metro

CITY           SKY/WX    TMP DP  RH WIND       PRES   REMARKS
TWIN CITIES    PTSUNNY   76  66  71 S6        29.92F
ST PAUL        FAIR      72  68  87 SE6       29.92F FOG
CRYSTAL        FAIR      76  67  73 S5        29.90F
BLAINE         PTSUNNY   75  70  83 S6        29.92S
LAKEVILLE      FAIR      72  70  94 CALM      29.93F
EDEN PRAIRIE   FAIR      75  67  76 S3        29.91F
SOUTH ST PAUL  FAIR      73  68  84 CALM      29.92F HAZE
LAKE ELMO      FAIR      72  68  88 S5        29.94S
$$
MNZ001>005-007-008-013>017-022>024-027-028-011500-
   Northwest Minnesota

CITY           SKY/WX    TMP DP  RH WIND       PRES   REMARKS
BEMIDJI        FAIR      61  60  96 CALM      29.92S
HALLOCK        FAIR      63  54  72 S7        29.85S
ROSEAU         FAIR      63  55  77 SW5       29.88R
WARROAD        FAIR      63  55  77 S6        29.88S
THIEF RVR FALL FAIR     N/A N/A N/A S3        29.89S
CROOKSTON      FAIR      63  59  88 S6        29.89S
FOSSTON        FAIR      61  61 100 S3        29.91F
DETROIT LAKES  FAIR      63  61  94 SE3       29.93S
MOORHEAD       FAIR      64  63  94 CALM      29.89F FOG
PARK RAPIDS    FAIR      65  62  90 SE3       29.93S
MAHNOMEN       FAIR      62  59  91 CALM      29.90S
$$
MNZ006-009>011-018-025>026-011500-
   North Central Minnesota

CITY           SKY/WX    TMP DP  RH WIND       PRES   REMARKS
BAUDETTE       FAIR      63  55  75 CALM      29.88S
FLAG ISLAND    FAIR      64  54  68 SW5       29.85S
INTL FALLS     FAIR      61  59  93 CALM      29.90S
WASKISH        FAIR      61  57  88 CALM      29.90F
BIG FORK       FAIR      61  61 100 CALM      29.93S FOG
LONGVILLE      FAIR      64  64 100 CALM      29.93S FOG
GRAND RAPIDS     N/A     66  63  88 CALM      29.93S
CRANE LAKE     FAIR      61  61 100 S1        29.93R
ORR            FAIR      63  61  94 CALM      29.90S
COOK           FAIR      64  63  94 CALM      29.93S
WALKER         FAIR      62  60  91 CALM      29.93S
$$
MNZ012-019>021-037-011500-
   Northeast Minnesota

CITY           SKY/WX    TMP DP  RH WIND       PRES   REMARKS
DULUTH         FAIR      71  68  90 CALM      29.92S FOG
ELY            FAIR      66  64  94 W3        29.92S
HIBBING        FAIR      68  64  87 CALM      29.93R
EVELETH        FAIR      64  64 100 CALM      29.93S
DULUTH HARBOR  CLOUDY    73  70  88 SW7       29.90S
TWO HARBORS    FAIR      75  72  88 CALM      29.89S
SILVER BAY     FAIR      75  70  83 CALM      29.89S
GRAND MARAIS     N/A     58  57  97 SW3       29.87S
G MARAIS ARPRT FAIR      72  64  78 CALM      29.93S HAZE
$$
MNZ029>031-032-039>041-046>048-054>057-064-011500-
   West Central Minnesota

CITY           SKY/WX    TMP DP  RH WIND       PRES   REMARKS
FERGUS FALLS   FAIR      70  66  88 SE8       29.90S
WHEATON        FAIR      66  64  94 SE3       29.91S
MORRIS         FAIR      72  66  83 E6        29.90S
ALEXANDRIA     FAIR      71  65  81 E6        29.94S
ELBOW LAKE     FAIR      68  65  90 E6        29.90F
WADENA         FAIR      64  64 100 CALM      29.93S
GLENWOOD       FAIR      70  66  88 NE6       29.93S
APPLETON       FAIR      72  66  83 E8        29.88F
BENSON         FAIR      70  64  83 E3        29.91R
ORTONVILLE     FAIR      70  64  83 E6        29.89F
MADISON        FAIR      70  66  88 CALM      29.90S FOG
WILLMAR        FAIR      72  70  94 CALM      29.92F FOG
$$
MNZ033>034-036-042>043-049>051-058-059-011500-
   Central Minnesota

CITY           SKY/WX    TMP DP  RH WIND       PRES   REMARKS
ST CLOUD       FAIR      70  68  93 CALM      29.92S FOG
SAUK CENTRE    FAIR      68  66  91 E3        29.93S
PAYNESVILLE    FAIR      70  68  94 N5        29.93S
AITKIN         FAIR      70  63  78 CALM      29.91S
PINE RIVER     FAIR      64  64 100 CALM      29.96S
BRAINERD       FAIR      67  65  93 CALM      29.93S FOG
STAPLES        FAIR      64  64 100 CALM      29.93S
LONG PRAIRIE   FAIR      68  64  88 CALM      29.94R
LITTLE FALLS   FAIR      70  64  83 CALM      29.93S
LITCHFIELD     FAIR      72  70  94 CALM      29.93F
BUFFALO        FAIR      71  66  82 S5        29.94S
MAPLE LAKE     FAIR      72  69  92 CALM      29.93S
$$
MNZ037-044-045-052-053-011500-
   East Central Minnesota

CITY           SKY/WX    TMP DP  RH WIND       PRES   REMARKS
PRINCETON      FAIR      72  68  88 CALM      29.92S
MORA           FAIR      70  68  94 W3        29.94R FOG
CAMBRIDGE      FAIR      73  64  73 S5        29.90S
RUSH CITY      FAIR      71  68  90 S3        29.92F
MOOSE LAKE     FAIR      70  68  94 CALM      29.90F FOG
HINCKLEY       PTSUNNY   70  70 100 SW3       29.92F FOG
CLOQUET        FAIR      70  66  88 CALM      29.92F FOG
MCGREGOR       FAIR      68  68 100 CALM      29.92F
$$
MNZ071>073-080-081-089-090-097-098-011500-
   Southwest Minnesota

CITY           SKY/WX    TMP DP  RH WIND       PRES   REMARKS
MONTEVIDEO     FAIR      70  70 100 SE5       29.91F FOG
GRANITE FALLS  FAIR      68  68  98 CALM      29.91S
CANBY          FAIR      68  66  92 CALM      29.91F
MARSHALL       FAIR      70  64  83 CALM      29.92S
REDWOOD FALLS  FAIR      70  66  87 SE3       29.90S
OLIVIA         FAIR      68  63  83 CALM      29.91R
PIPESTONE      FAIR      70  66  88 S3        29.92S FOG
WINDOM         FAIR      72  66  83 CALM      29.92F
WORTHINGTON    FAIR      70  64  83 S8        29.93S
JACKSON        FAIR      72  68  88 S5        29.94F
TRACY          FAIR      70  68  92 N3        29.92R
SLAYTON        FAIR      67  67  99 CALM      29.93S FOG
$$
MNZ065>067-074>077-082>085-091>093-011500-
   South Central Minnesota

CITY           SKY/WX    TMP DP  RH WIND       PRES   REMARKS
MANKATO        FAIR      70  64  83 S3        29.93S
NEW ULM        FAIR      68  66  94 CALM      29.92S
ST JAMES       FAIR      70  68  94 SE5       29.93S
FAIRMONT       FAIR      70  63  78 S7        29.93F
GLENCOE        FAIR      73  69  88 S5        29.92S
FARIBAULT      FAIR      73  70  88 S6        29.94F FOG
OWATONNA       FAIR      73  70  88 S5        29.95S
WASECA         FAIR      72  68  88 S5        29.95F
ALBERT LEA     FAIR      73  70  88 S5        29.95S
$$
MNZ078>079-086>088-094>096-011500-
   Southeast Minnesota

CITY           SKY/WX    TMP DP  RH WIND       PRES   REMARKS
ROCHESTER      FAIR      70  70 100 S7        29.97F FOG
RED WING       FAIR      73  72  94 SE6       29.92F
STANTON        FAIR      74  69  85 S3        29.93S
DODGE CENTER   FAIR      72  70  94 S7        29.96F FOG
WINONA         FAIR      73  72  94 SE7       29.95F FOG
AUSTIN         FAIR      72  72 100 S6        29.96F FOG
PRESTON        FAIR      70  69  95 S9        29.99S FOG
$$
ABBREVIATIONS USED IN REMARKS
   TC - TEMPERATURES IN CELSIUS
  WCI - WIND CHILL INDEX
   HX - HEAT INDEX
  VSB - VISIBILITY
$$



USA.gov is the U.S. government's official web portal to all federal, state and local government web resources and services.